Regional Weather Roundup
Issued by NWS

Home | Current Version | Previous Version | Text Only | Print | Product List | Glossary Off
Versions: 1 2 3 4 5 6 7 8 9 10 11 12 13 14 15 16 17 18 19 20 21 22 23 24 25 26 27 28 29 30 31 32 33 34 35 36 37 38 39 40 41 42 43 44 45 46 47 48 49 50

000
ASUS45 KBOU 241210
RWRCO

WEATHER ROUNDUP FOR COLORADO
NATIONAL WEATHER SERVICE PUEBLO CO
500 AM MST SAT FEB 24 2018

NOTE: "FAIR" INDICATES FEW OR NO CLOUDS BELOW 12000 FEET WITH NO
SIGNIFICANT WEATHER AND/OR OBSTRUCTIONS TO VISIBILITY.

COZ001>005-013-030-031-241300-
...NORTHWEST COLORADO...

CITY           SKY/WX    TMP DP  RH WIND       PRES   REMARKS
CRAIG          CLOUDY    11   7  84 NW5       29.95R WCI   3
HAYDEN         MOCLDY    11   7  84 W5        29.93S WCI   3
MEEKER         CLOUDY    16   7  67 CALM      29.94S
RABBIT EARS PA NOT AVBL
STEAMBOAT SPGS CLOUDY    11   9  89 SW8       29.89S WCI   0
WALDEN         FAIR       9   1  72 W7        29.78R WCI  -3
$$

COZ006>008-011-241300-
...WEST CENTRAL VALLEYS...

CITY           SKY/WX    TMP DP  RH WIND       PRES   REMARKS
GRAND JUNCTION CLEAR     20  13  74 N5        30.01S WCI  13
MONTROSE       PTCLDY    17   9  70 NW3       30.00R
EAGLE          CLOUDY    19  12  74 W7        29.90R WCI  10
RIFLE          CLOUDY    21  11  65 W6        29.97R WCI  13
DELTA          NOT AVBL
NUCLA          FOG       18  14  86 CALM      30.04R VSB 1/4
$$

COZ017>023-064>068-241300-
...SOUTHWEST COLORADO...

CITY           SKY/WX    TMP DP  RH WIND       PRES   REMARKS
DURANGO        CLEAR     11   9  92 NW3       29.91R
CORTEZ         MOCLDY    19  12  74 CALM      30.03R
PAGOSA SPRINGS CLOUDY    18  15  90 CALM      29.87R
TELLURIDE      LGT SNOW  11   8  89 W9        29.88R WCI  -2
WOLF CREEK PAS CLOUDY     0  -2  92 W5        29.76R WCI -10
$$

COZ009-010-012-014-032>034-037-058>063-241300-
...CENTRAL COLORADO...

CITY           SKY/WX    TMP DP  RH WIND       PRES   REMARKS
ASPEN          LGT SNOW  15  11  83 N7        29.82R FOG     WCI   5
BUENA VISTA    FAIR      16   1  52 NW5       29.76S WCI   8
COPPER MTN     CLOUDY     1  -6  71 W21G32    29.61F HAZE    WCI -20
BERTHOUD PASS  CLOUDY    -6 -17  59 NW29G36   29.55S WCI -33
COTTONWOOD PAS CLOUDY    18   3  53 W10G24    29.70S WCI   6
GUNNISON       PTCLDY    14   8  77 W3        29.84R
KREMMLING      PTCLDY    18   3  53 NW9       29.84S WCI   6
LEADVILLE      LGT SNOW   5   1  83 NW9       29.70F VSB 1   WCI  -9
MONARCH PASS   CLOUDY     1  -4  78 W33G43    29.73F WCI -25
SALIDA         FAIR      21   4  48 W12       29.85R WCI   9
SUNLIGHT       LGT SNOW N/A N/A N/A W12G20    29.77S
WILKERSON PASS MOCLDY     3  -4  72 NW8       29.66S WCI -10
$$

COZ069>075-241300-
...SAN LUIS VALLEY/SANGRE DE CRISTO MOUNTAINS...

CITY           SKY/WX    TMP DP  RH WIND       PRES   REMARKS
ALAMOSA        PTCLDY    16   7  67 N14       29.80R WCI   2
DEL NORTE      FAIR      14   8  76 SW10      29.80F WCI   1
LA VETA PASS   LGT SNOW   9   5  85 SW17G35   29.77F WCI -10
SAGUACHE       PTCLDY    14   5  67 NW21      29.79S WCI  -4
$$

COZ035-036-038>040-241300-
...NORTHERN COLORADO FRONT RANGE...

CITY           SKY/WX    TMP DP  RH WIND       PRES   REMARKS
DENVER INTL AP MOCLDY    21  18  88 NW6       29.77F FOG     WCI  13
DMNS CITY PARK NOT AVBL
AURORA         MOCLDY    19  19  99 SW3       29.78F
FRONT RANGE AP CLOUDY    23  22  95 NW5       29.78F FOG     WCI  17
ERIE MUNI ARPT   N/A     17  15  93 CALM      29.85F FOG
BOULDER MUN AP FOG       19  19 100 NE6       29.78F VSB 1/2 WCI  11
CENTENNIAL     CLOUDY    21  19  92 CALM      29.77S FOG
BROOMFIELD     NOT AVBL
LOVELAND       CLOUDY    18  17  96 SW6       29.81R FOG     WCI  10
LONGMONT       CLOUDY    24  21  88 CALM      29.82S
$$

COZ041-046-047-076>085-087-088-241300-
...PIKES PEAK/PALMER DIVIDE AND SOUTHERN FOOTHILLS...

CITY           SKY/WX    TMP DP  RH WIND       PRES   REMARKS
COLO. SPRINGS  CLOUDY    22  20  92 CALM      29.77S FOG
A. F. ACADEMY  CLOUDY    20  18  92 CALM      29.74S
SCHRIEVER AFB  NOT AVBL
CHEYENNE MTN   NOT AVBL
ELLICOTT       CLOUDY   N/A N/A N/A NW6       29.75S
FALCON         CLOUDY    19  18  96 W6        29.75R WCI  11
FORT CARSON    CLOUDY    22  21  94 NE3       29.76S
LIMON          CLOUDY    22  21  96 SW5       29.77S WCI  16
MONUMENT HILL  CLOUDY    19  19 100 NW8       29.75R FOG     WCI   9
CANON CITY     MOCLDY    25  25 100 MISG      29.79S
WALSENBURG     FAIR      21  19  93 NE5       29.78R WCI  15
TRINIDAD       PTCLDY    18  15  88 VRB3      29.77F FOG
$$

COZ042>045-048>051-090-091-241300-
...NORTHEAST COLORADO...

CITY           SKY/WX    TMP DP  RH WIND       PRES   REMARKS
GREELEY ARPT   CLOUDY    20  18  92 W5        29.82S WCI  13
AKRON          CLOUDY    22  21  96 CALM      29.78S
BURLINGTON     CLOUDY    24  23  96 S10       29.80F WCI  14
WRAY           CLOUDY    25  25 100 E3        29.83S
YUMA           NOT AVBL
STERLING       CLOUDY    27  23  86 S3        29.80F
HOLYOKE        CLOUDY    25  21  86 CALM      29.84S
FORT MORGAN    CLOUDY    24  21  89 N5        29.80F WCI  18
$$

COZ086-089-092>099-241300-
...SOUTHEAST COLORADO...

CITY           SKY/WX    TMP DP  RH WIND       PRES   REMARKS
PUEBLO         CLOUDY    26  25  96 CALM      29.81S FOG
LA JUNTA       CLOUDY    27  25  92 CALM      29.83R FOG
LAMAR          CLOUDY    26  24  92 SE5       29.83F WCI  20
SPRINGFIELD      N/A     25  25 100 SE6       29.82F WCI  18
$$




USA.gov is the U.S. government's official web portal to all federal, state and local government web resources and services.